status,avgMeasuredTime,avgSpeed,extID,medianMeasuredTime,TIMESTAMP,vehicleCount,_id,REPORT_ID
OK,71,40,936,71,2014-08-01T08:00:00,1,20746991,204007
OK,61,47,936,61,2014-08-01T08:05:00,2,20747440,204007
OK,52,55,936,52,2014-08-01T08:10:00,0,20747813,204007
OK,52,55,936,52,2014-08-01T08:15:00,0,20748262,204007
OK,52,55,936,52,2014-08-01T08:20:00,0,20748711,204007
OK,67,42,936,67,2014-08-01T08:25:00,1,20749160,204007
OK,67,42,936,67,2014-08-01T08:30:00,1,20749609,204007
OK,67,42,936,67,2014-08-01T08:35:00,1,20750058,204007
OK,72,39,936,72,2014-08-01T08:40:00,3,20750507,204007
OK,74,38,936,74,2014-08-01T08:45:00,3,20750956,204007
OK,72,39,936,72,2014-08-01T08:50:00,3,20751405,204007
OK,71,40,936,71,2014-08-01T08:55:00,2,20751854,204007
OK,72,39,936,72,2014-08-01T09:00:00,0,20752303,204007
OK,74,38,936,74,2014-08-01T09:05:00,1,20752752,204007
OK,67,42,936,67,2014-08-01T09:10:00,3,20753201,204007
OK,71,40,936,71,2014-08-01T09:20:00,5,20754099,204007
OK,83,34,936,83,2014-08-01T09:25:00,4,20754548,204007
OK,62,46,936,62,2014-08-01T09:30:00,1,20754997,204007
OK,75,38,936,75,2014-08-01T09:35:00,4,20755446,204007
OK,77,37,936,77,2014-08-01T09:40:00,3,20755895,204007
OK,69,41,936,69,2014-08-01T09:45:00,1,20756344,204007
OK,76,37,936,76,2014-08-01T09:50:00,2,20756793,204007
OK,70,41,936,70,2014-08-01T09:55:00,3,20757242,204007
OK,73,39,936,73,2014-08-01T10:00:00,4,20757691,204007
OK,76,37,936,76,2014-08-01T10:05:00,2,20758140,204007
OK,82,35,936,82,2014-08-01T10:15:00,2,20759038,204007
OK,73,39,936,73,2014-08-01T10:20:00,3,20759487,204007
OK,70,41,936,70,2014-08-01T10:25:00,2,20759936,204007
OK,70,41,936,70,2014-08-01T10:30:00,0,20760385,204007
OK,65,44,936,65,2014-08-01T10:35:00,1,20760834,204007
OK,73,39,936,73,2014-08-01T10:40:00,3,20761283,204007
OK,73,39,936,73,2014-08-01T10:45:00,3,20761732,204007
OK,58,49,936,58,2014-08-01T10:50:00,1,20762181,204007
OK,76,37,936,76,2014-08-01T10:55:00,2,20762630,204007
OK,81,35,936,81,2014-08-01T11:00:00,2,20763079,204007
OK,83,34,936,83,2014-08-01T11:05:00,4,20763528,204007
OK,81,35,936,81,2014-08-01T11:10:00,2,20763977,204007
OK,85,33,936,85,2014-08-01T11:15:00,6,20764425,204007
OK,85,33,936,85,2014-08-01T11:20:00,5,20764874,204007
OK,85,33,936,85,2014-08-01T11:25:00,0,20765323,204007
OK,74,38,936,74,2014-08-01T11:30:00,3,20765772,204007
OK,74,38,936,74,2014-08-01T11:35:00,3,20766221,204007
OK,81,35,936,81,2014-08-01T11:40:00,1,20766670,204007
OK,81,35,936,81,2014-08-01T11:45:00,1,20767119,204007
OK,64,44,936,64,2014-08-01T11:50:00,1,20767568,204007
OK,68,42,936,68,2014-08-01T11:55:00,2,20768017,204007
OK,73,39,936,73,2014-08-01T12:00:00,0,20768466,204007
OK,83,34,936,83,2014-08-01T12:05:00,2,20768915,204007
OK,77,37,936,77,2014-08-01T12:10:00,1,20769364,204007
OK,74,38,936,74,2014-08-01T12:15:00,2,20769813,204007
OK,66,43,936,66,2014-08-01T12:20:00,4,20770262,204007
OK,66,43,936,66,2014-08-01T12:25:00,4,20770711,204007
OK,66,43,936,66,2014-08-01T12:30:00,4,20771160,204007
OK,65,44,936,65,2014-08-01T12:35:00,4,20771609,204007
OK,70,41,936,70,2014-08-01T12:40:00,2,20772058,204007
OK,75,38,936,75,2014-08-01T12:45:00,1,20772507,204007
OK,69,41,936,69,2014-08-01T12:50:00,1,20772956,204007
OK,64,44,936,64,2014-08-01T12:55:00,5,20773405,204007
OK,63,45,936,63,2014-08-01T13:00:00,6,20773854,204007
OK,83,34,936,83,2014-08-01T13:05:00,2,20774303,204007
OK,80,35,936,80,2014-08-01T13:10:00,2,20774752,204007
OK,80,35,936,80,2014-08-01T13:15:00,2,20775201,204007
OK,89,32,936,89,2014-08-01T13:20:00,2,20775650,204007
OK,78,36,936,78,2014-08-01T13:25:00,4,20776099,204007
OK,64,44,936,64,2014-08-01T13:30:00,3,20776548,204007
OK,64,44,936,64,2014-08-01T13:35:00,1,20776997,204007
OK,63,45,936,63,2014-08-01T13:40:00,4,20777446,204007
OK,67,42,936,67,2014-08-01T13:45:00,4,20777895,204007
OK,68,42,936,68,2014-08-01T13:50:00,4,20778344,204007
OK,71,40,936,71,2014-08-01T14:00:00,1,20779242,204007
OK,76,37,936,76,2014-08-01T14:05:00,2,20779691,204007
OK,81,35,936,81,2014-08-01T14:10:00,2,20780140,204007
OK,83,34,936,83,2014-08-01T14:15:00,1,20780589,204007
OK,62,46,936,62,2014-08-01T14:20:00,1,20781038,204007
OK,63,45,936,63,2014-08-01T14:25:00,4,20781487,204007
OK,72,39,936,72,2014-08-01T14:30:00,8,20781936,204007
OK,82,35,936,82,2014-08-01T14:35:00,8,20782385,204007
OK,83,34,936,83,2014-08-01T14:40:00,9,20782834,204007
OK,84,34,936,84,2014-08-01T14:45:00,6,20783283,204007
OK,73,39,936,73,2014-08-01T14:50:00,3,20783732,204007
OK,67,42,936,67,2014-08-01T14:55:00,6,20784181,204007
OK,67,42,936,67,2014-08-01T15:00:00,6,20784630,204007
OK,65,44,936,65,2014-08-01T15:05:00,4,20785079,204007
OK,67,42,936,67,2014-08-01T15:10:00,1,20785528,204007
OK,70,41,936,70,2014-08-01T15:15:00,2,20785977,204007
OK,77,37,936,77,2014-08-01T15:20:00,4,20786426,204007
OK,77,37,936,77,2014-08-01T15:25:00,4,20786875,204007
OK,57,50,936,57,2014-08-01T15:30:00,1,20787324,204007
OK,62,46,936,62,2014-08-01T15:35:00,2,20787773,204007
OK,67,42,936,67,2014-08-01T15:40:00,3,20788222,204007
OK,72,39,936,72,2014-08-01T15:45:00,5,20788671,204007
OK,69,41,936,69,2014-08-01T15:50:00,3,20789120,204007
OK,71,40,936,71,2014-08-01T15:55:00,2,20789569,204007
OK,77,37,936,77,2014-08-01T16:00:00,2,20790018,204007
OK,96,29,936,96,2014-08-01T16:05:00,1,20790467,204007
OK,96,29,936,96,2014-08-01T16:10:00,0,20790916,204007
OK,96,29,936,96,2014-08-01T16:15:00,0,20791365,204007
OK,96,29,936,96,2014-08-01T16:20:00,0,20791814,204007
OK,65,44,936,65,2014-08-01T16:25:00,1,20792263,204007
OK,65,44,936,65,2014-08-01T16:30:00,1,20792712,204007
OK,67,42,936,67,2014-08-01T16:35:00,3,20793161,204007
OK,67,42,936,67,2014-08-01T16:40:00,5,20793610,204007
OK,73,39,936,73,2014-08-01T16:45:00,1,20794059,204007
OK,75,38,936,75,2014-08-01T16:50:00,1,20794508,204007
OK,75,38,936,75,2014-08-01T16:55:00,1,20794957,204007
OK,65,44,936,65,2014-08-01T17:00:00,1,20795406,204007
OK,83,34,936,83,2014-08-01T17:05:00,2,20795855,204007
OK,81,35,936,81,2014-08-01T17:10:00,3,20796304,204007
OK,68,42,936,68,2014-08-01T17:15:00,2,20796753,204007
OK,70,41,936,70,2014-08-01T17:20:00,2,20797202,204007
OK,74,38,936,74,2014-08-01T17:25:00,2,20797651,204007
OK,72,39,936,72,2014-08-01T17:30:00,1,20798100,204007
OK,72,39,936,72,2014-08-01T17:35:00,0,20798549,204007
OK,72,39,936,72,2014-08-01T17:40:00,0,20798998,204007
OK,72,39,936,72,2014-08-01T17:45:00,0,20799447,204007
OK,72,39,936,72,2014-08-01T17:50:00,0,20799896,204007
OK,72,39,936,72,2014-08-01T17:55:00,0,20800345,204007
OK,72,39,936,72,2014-08-01T18:00:00,0,20800794,204007
OK,65,44,936,65,2014-08-01T18:05:00,1,20801243,204007
OK,65,44,936,65,2014-08-01T18:10:00,1,20801692,204007
OK,65,44,936,65,2014-08-01T18:15:00,0,20802141,204007
OK,65,44,936,65,2014-08-01T18:20:00,0,20802590,204007
OK,65,44,936,65,2014-08-01T18:25:00,0,20803039,204007
OK,65,44,936,65,2014-08-01T18:30:00,0,20803488,204007
OK,65,44,936,65,2014-08-01T18:35:00,1,20803937,204007
OK,65,44,936,65,2014-08-01T18:40:00,1,20804386,204007
OK,55,52,936,55,2014-08-01T18:45:00,2,20804835,204007
OK,55,52,936,55,2014-08-01T18:50:00,0,20805284,204007
OK,55,52,936,55,2014-08-01T18:55:00,0,20805733,204007
OK,67,42,936,67,2014-08-01T19:00:00,1,20806182,204007
OK,67,42,936,67,2014-08-01T19:05:00,1,20806631,204007
OK,67,42,936,67,2014-08-01T19:10:00,0,20807080,204007
OK,67,42,936,67,2014-08-01T19:15:00,0,20807529,204007
OK,67,42,936,67,2014-08-01T19:20:00,0,20807978,204007
OK,67,42,936,67,2014-08-01T19:25:00,0,20808427,204007
OK,67,42,936,67,2014-08-01T19:30:00,0,20808876,204007
OK,68,42,936,68,2014-08-01T19:35:00,1,20809325,204007
OK,68,42,936,68,2014-08-01T19:40:00,1,20809774,204007
OK,72,39,936,72,2014-08-01T19:45:00,1,20810223,204007
OK,72,39,936,72,2014-08-01T19:50:00,0,20810672,204007
OK,72,39,936,72,2014-08-01T19:55:00,0,20811121,204007
OK,72,39,936,72,2014-08-01T22:00:00,0,20816850,204007
OK,51,56,936,51,2014-08-02T00:00:00,0,20823289,204007
OK,51,56,936,51,2014-08-02T00:05:00,0,20823738,204007
OK,51,56,936,51,2014-08-02T00:10:00,0,20824187,204007
OK,51,56,936,51,2014-08-02T00:15:00,0,20824636,204007
OK,51,56,936,51,2014-08-02T00:20:00,0,20825085,204007
OK,51,56,936,51,2014-08-02T00:25:00,0,20825534,204007
OK,51,56,936,51,2014-08-02T00:30:00,0,20825983,204007
OK,51,56,936,51,2014-08-02T00:35:00,0,20826432,204007
OK,51,56,936,51,2014-08-02T00:40:00,0,20826881,204007
OK,51,56,936,51,2014-08-02T00:45:00,0,20827330,204007
OK,51,56,936,51,2014-08-02T00:50:00,0,20827779,204007
OK,51,56,936,51,2014-08-02T00:55:00,0,20828228,204007
OK,51,56,936,51,2014-08-02T01:00:00,0,20828677,204007
OK,51,56,936,51,2014-08-02T01:05:00,0,20829126,204007
OK,51,56,936,51,2014-08-02T01:10:00,0,20829575,204007
OK,51,56,936,51,2014-08-02T01:15:00,0,20830024,204007
OK,51,56,936,51,2014-08-02T01:20:00,0,20830473,204007
OK,51,56,936,51,2014-08-02T01:25:00,0,20830922,204007
OK,51,56,936,51,2014-08-02T01:30:00,0,20831371,204007
OK,51,56,936,51,2014-08-02T01:35:00,0,20831820,204007
OK,51,56,936,51,2014-08-02T01:40:00,0,20832269,204007
OK,51,56,936,51,2014-08-02T01:45:00,0,20832718,204007
OK,51,56,936,51,2014-08-02T01:50:00,0,20833167,204007
OK,51,56,936,51,2014-08-02T01:55:00,0,20833616,204007
OK,51,56,936,51,2014-08-02T02:00:00,0,20834065,204007
OK,51,56,936,51,2014-08-02T02:05:00,0,20834514,204007
OK,51,56,936,51,2014-08-02T02:10:00,0,20834963,204007
OK,51,56,936,51,2014-08-02T02:15:00,0,20835412,204007
OK,51,56,936,51,2014-08-02T02:20:00,0,20835861,204007
OK,51,56,936,51,2014-08-02T02:25:00,0,20836310,204007
OK,51,56,936,51,2014-08-02T02:30:00,0,20836759,204007
OK,51,56,936,51,2014-08-02T02:35:00,0,20837208,204007
OK,51,56,936,51,2014-08-02T02:40:00,0,20837657,204007
OK,51,56,936,51,2014-08-02T02:45:00,0,20838106,204007
OK,51,56,936,51,2014-08-02T02:50:00,0,20838555,204007
OK,51,56,936,51,2014-08-02T02:55:00,0,20839004,204007
OK,51,56,936,51,2014-08-02T03:00:00,0,20839453,204007
OK,51,56,936,51,2014-08-02T03:05:00,0,20839902,204007
OK,51,56,936,51,2014-08-02T03:10:00,0,20840351,204007
OK,51,56,936,51,2014-08-02T03:15:00,0,20840800,204007
OK,51,56,936,51,2014-08-02T03:20:00,0,20841249,204007
OK,51,56,936,51,2014-08-02T03:25:00,0,20841698,204007
OK,51,56,936,51,2014-08-02T03:30:00,0,20842147,204007
OK,51,56,936,51,2014-08-02T03:35:00,0,20842596,204007
OK,51,56,936,51,2014-08-02T03:40:00,0,20843045,204007
OK,51,56,936,51,2014-08-02T03:45:00,0,20843494,204007
OK,51,56,936,51,2014-08-02T03:50:00,0,20843943,204007
OK,51,56,936,51,2014-08-02T03:55:00,0,20844392,204007
OK,63,45,936,63,2014-08-02T06:00:00,0,20851846,204007
OK,63,45,936,63,2014-08-02T06:05:00,0,20852295,204007
OK,63,45,936,63,2014-08-02T06:10:00,0,20852744,204007
OK,63,45,936,63,2014-08-02T06:15:00,0,20853193,204007
OK,56,51,936,56,2014-08-02T06:20:00,1,20853642,204007
OK,104,27,936,104,2014-08-02T06:25:00,1,20854091,204007
OK,104,27,936,104,2014-08-02T06:30:00,1,20854540,204007
OK,60,47,936,60,2014-08-02T06:35:00,1,20854989,204007
OK,70,41,936,70,2014-08-02T06:40:00,2,20855438,204007
OK,70,41,936,70,2014-08-02T06:45:00,2,20855887,204007
OK,74,38,936,74,2014-08-02T06:50:00,1,20856336,204007
OK,74,38,936,74,2014-08-02T06:55:00,1,20856785,204007
OK,74,38,936,74,2014-08-02T07:00:00,0,20857234,204007
OK,69,41,936,69,2014-08-02T07:05:00,1,20857683,204007
OK,69,41,936,69,2014-08-02T07:10:00,0,20858132,204007
OK,69,41,936,69,2014-08-02T07:15:00,0,20858581,204007
OK,69,41,936,69,2014-08-02T07:20:00,0,20859030,204007
OK,67,42,936,67,2014-08-02T07:25:00,2,20859479,204007
OK,64,44,936,64,2014-08-02T07:30:00,2,20859928,204007
OK,61,47,936,61,2014-08-02T07:35:00,1,20860377,204007
OK,74,38,936,74,2014-08-02T07:40:00,1,20860826,204007
OK,73,39,936,73,2014-08-02T07:45:00,1,20861275,204007
OK,70,41,936,70,2014-08-02T07:50:00,2,20861724,204007
OK,67,42,936,67,2014-08-02T07:55:00,0,20862173,204007
OK,69,41,936,69,2014-08-02T08:00:00,1,20862622,204007
OK,69,41,936,69,2014-08-02T08:05:00,1,20863071,204007
OK,69,41,936,69,2014-08-02T08:10:00,0,20863520,204007
OK,69,41,936,69,2014-08-02T08:15:00,0,20863969,204007
OK,69,41,936,69,2014-08-02T08:20:00,0,20864418,204007
OK,76,37,936,76,2014-08-02T08:25:00,1,20864867,204007
OK,82,35,936,82,2014-08-02T08:30:00,2,20865316,204007
OK,77,37,936,77,2014-08-02T08:35:00,1,20865765,204007
OK,67,42,936,67,2014-08-02T08:40:00,1,20866214,204007
OK,72,39,936,72,2014-08-02T08:45:00,1,20866663,204007
OK,74,38,936,74,2014-08-02T08:50:00,2,20867112,204007
OK,76,37,936,76,2014-08-02T08:55:00,3,20867561,204007
OK,67,42,936,67,2014-08-02T09:00:00,3,20868010,204007
OK,67,42,936,67,2014-08-02T09:05:00,1,20868459,204007
OK,71,40,936,71,2014-08-02T09:10:00,1,20868908,204007
OK,67,42,936,67,2014-08-02T09:15:00,3,20869357,204007
OK,67,42,936,67,2014-08-02T09:20:00,1,20869806,204007
OK,80,35,936,80,2014-08-02T09:25:00,2,20870255,204007
OK,80,35,936,80,2014-08-02T09:30:00,2,20870704,204007
OK,91,31,936,91,2014-08-02T09:35:00,0,20871153,204007
OK,71,40,936,71,2014-08-02T09:40:00,1,20871602,204007
OK,60,47,936,60,2014-08-02T09:45:00,1,20872051,204007
OK,60,47,936,60,2014-08-02T09:50:00,2,20872500,204007
OK,78,36,936,78,2014-08-02T09:55:00,4,20872949,204007
OK,78,36,936,78,2014-08-02T10:00:00,4,20873398,204007
OK,68,42,936,68,2014-08-02T10:05:00,3,20873847,204007
OK,72,39,936,72,2014-08-02T10:10:00,3,20874296,204007
OK,71,40,936,71,2014-08-02T10:15:00,2,20874745,204007
OK,75,38,936,75,2014-08-02T10:20:00,2,20875194,204007
OK,70,41,936,70,2014-08-02T10:25:00,3,20875643,204007
OK,71,40,936,71,2014-08-02T10:30:00,3,20876092,204007
OK,72,39,936,72,2014-08-02T10:35:00,6,20876541,204007
OK,66,43,936,66,2014-08-02T10:40:00,4,20876990,204007
OK,62,46,936,62,2014-08-02T10:45:00,1,20877439,204007
OK,62,46,936,62,2014-08-02T10:50:00,1,20877888,204007
OK,75,38,936,75,2014-08-02T10:55:00,1,20878337,204007
OK,76,37,936,76,2014-08-02T11:00:00,2,20878786,204007
OK,72,39,936,72,2014-08-02T11:05:00,2,20879235,204007
OK,67,42,936,67,2014-08-02T11:10:00,0,20879684,204007
OK,60,47,936,60,2014-08-02T11:15:00,1,20880133,204007
OK,60,47,936,60,2014-08-02T11:20:00,1,20880582,204007
OK,67,42,936,67,2014-08-02T11:25:00,2,20881031,204007
OK,72,39,936,72,2014-08-02T11:30:00,1,20881480,204007
OK,69,41,936,69,2014-08-02T11:35:00,4,20881929,204007
OK,71,40,936,71,2014-08-02T11:40:00,4,20882378,204007
OK,85,33,936,85,2014-08-02T11:45:00,1,20882827,204007
OK,68,42,936,68,2014-08-02T11:50:00,2,20883276,204007
OK,51,56,936,51,2014-08-02T11:55:00,1,20883725,204007
OK,51,56,936,51,2014-08-02T12:00:00,0,20884174,204007
OK,86,33,936,86,2014-08-02T12:05:00,2,20884623,204007
OK,52,55,936,52,2014-08-02T12:10:00,1,20885072,204007
OK,66,43,936,66,2014-08-02T12:15:00,1,20885521,204007
OK,62,46,936,62,2014-08-02T12:20:00,2,20885970,204007
OK,66,43,936,66,2014-08-02T12:25:00,1,20886419,204007
OK,75,38,936,75,2014-08-02T12:30:00,1,20886868,204007
OK,75,38,936,75,2014-08-02T12:35:00,0,20887317,204007
OK,66,43,936,66,2014-08-02T12:40:00,2,20887766,204007
OK,66,43,936,66,2014-08-02T12:45:00,2,20888215,204007
OK,67,42,936,67,2014-08-02T12:50:00,2,20888664,204007
OK,67,42,936,67,2014-08-02T12:55:00,2,20889113,204007
OK,85,33,936,85,2014-08-02T13:00:00,1,20889562,204007
OK,75,38,936,75,2014-08-02T13:05:00,2,20890011,204007
OK,72,39,936,72,2014-08-02T13:10:00,2,20890460,204007
OK,77,37,936,77,2014-08-02T13:15:00,2,20890909,204007
OK,74,38,936,74,2014-08-02T13:20:00,2,20891358,204007
OK,62,46,936,62,2014-08-02T13:25:00,3,20891807,204007
OK,63,45,936,63,2014-08-02T13:30:00,4,20892256,204007
OK,66,43,936,66,2014-08-02T13:35:00,2,20892705,204007
OK,70,41,936,70,2014-08-02T13:40:00,3,20893154,204007
OK,70,41,936,70,2014-08-02T13:45:00,3,20893603,204007
OK,76,37,936,76,2014-08-02T13:50:00,0,20894052,204007
OK,60,47,936,60,2014-08-02T13:55:00,1,20894501,204007
OK,60,47,936,60,2014-08-02T14:00:00,0,20894950,204007
OK,65,44,936,65,2014-08-02T14:05:00,3,20895399,204007
OK,66,43,936,66,2014-08-02T14:10:00,4,20895848,204007
OK,71,40,936,71,2014-08-02T14:15:00,2,20896297,204007
OK,68,42,936,68,2014-08-02T14:20:00,2,20896746,204007
OK,64,44,936,64,2014-08-02T14:25:00,3,20897195,204007
OK,72,39,936,72,2014-08-02T14:30:00,2,20897644,204007
OK,70,41,936,70,2014-08-02T14:35:00,1,20898093,204007
OK,63,45,936,63,2014-08-02T14:40:00,1,20898542,204007
OK,61,47,936,61,2014-08-02T14:45:00,2,20898991,204007
OK,59,48,936,59,2014-08-02T14:50:00,3,20899440,204007
OK,56,51,936,56,2014-08-02T14:55:00,1,20899889,204007
OK,64,44,936,64,2014-08-02T15:00:00,1,20900338,204007
OK,62,46,936,62,2014-08-02T15:05:00,1,20900787,204007
OK,62,46,936,62,2014-08-02T15:10:00,0,20901236,204007
OK,64,44,936,64,2014-08-02T15:15:00,1,20901685,204007
OK,64,44,936,64,2014-08-02T15:20:00,1,20902134,204007
OK,64,44,936,64,2014-08-02T15:25:00,0,20902583,204007
OK,77,37,936,77,2014-08-02T15:30:00,4,20903032,204007
OK,79,36,936,79,2014-08-02T15:35:00,3,20903481,204007
OK,97,29,936,97,2014-08-02T15:40:00,0,20903930,204007
OK,96,29,936,96,2014-08-02T15:45:00,3,20904379,204007
OK,90,31,936,90,2014-08-02T15:50:00,5,20904828,204007
OK,83,34,936,83,2014-08-02T15:55:00,2,20905277,204007
OK,76,37,936,76,2014-08-02T16:00:00,1,20905726,204007
OK,76,37,936,76,2014-08-02T16:05:00,1,20906175,204007
OK,69,41,936,69,2014-08-02T16:10:00,1,20906624,204007
OK,69,41,936,69,2014-08-02T16:15:00,0,20907073,204007
OK,69,41,936,69,2014-08-02T16:20:00,0,20907522,204007
OK,73,39,936,73,2014-08-02T16:25:00,1,20907971,204007
OK,73,39,936,73,2014-08-02T16:30:00,1,20908420,204007
OK,73,39,936,73,2014-08-02T16:35:00,0,20908869,204007
OK,69,41,936,69,2014-08-02T16:40:00,1,20909318,204007
OK,68,42,936,68,2014-08-02T16:45:00,2,20909767,204007
OK,65,44,936,65,2014-08-02T16:50:00,2,20910216,204007
OK,62,46,936,62,2014-08-02T16:55:00,1,20910665,204007
OK,58,49,936,58,2014-08-02T17:00:00,1,20911114,204007
OK,58,49,936,58,2014-08-02T17:05:00,2,20911563,204007
OK,59,48,936,59,2014-08-02T17:10:00,0,20912012,204007
OK,59,48,936,59,2014-08-02T17:15:00,0,20912461,204007
OK,59,48,936,59,2014-08-02T17:20:00,0,20912910,204007
OK,59,48,936,59,2014-08-02T17:25:00,0,20913359,204007
OK,59,48,936,59,2014-08-02T17:30:00,0,20913808,204007
OK,59,48,936,59,2014-08-02T17:35:00,1,20914257,204007
OK,59,48,936,59,2014-08-02T17:40:00,1,20914706,204007
OK,59,48,936,59,2014-08-02T17:45:00,0,20915155,204007
OK,74,38,936,74,2014-08-02T17:50:00,1,20915604,204007
OK,74,38,936,74,2014-08-02T17:55:00,1,20916053,204007
OK,74,38,936,74,2014-08-02T18:00:00,0,20916502,204007
OK,74,38,936,74,2014-08-02T18:05:00,0,20916951,204007
OK,74,38,936,74,2014-08-02T18:10:00,0,20917400,204007
OK,74,38,936,74,2014-08-02T18:15:00,0,20917849,204007
OK,74,38,936,74,2014-08-02T18:20:00,0,20918298,204007
OK,74,38,936,74,2014-08-02T18:25:00,0,20918747,204007
OK,74,38,936,74,2014-08-02T18:30:00,0,20919196,204007
OK,74,38,936,74,2014-08-02T18:35:00,0,20919645,204007
OK,74,38,936,74,2014-08-02T18:40:00,0,20920094,204007
OK,74,38,936,74,2014-08-02T18:45:00,0,20920543,204007
OK,74,38,936,74,2014-08-02T18:50:00,0,20920992,204007
OK,74,38,936,74,2014-08-02T18:55:00,0,20921441,204007
OK,74,38,936,74,2014-08-02T19:00:00,0,20921890,204007
OK,74,38,936,74,2014-08-02T19:05:00,0,20922339,204007
OK,74,38,936,74,2014-08-02T19:10:00,0,20922788,204007
OK,66,43,936,66,2014-08-02T19:15:00,2,20923237,204007
OK,66,43,936,66,2014-08-02T19:20:00,2,20923686,204007
OK,73,39,936,73,2014-08-02T19:25:00,0,20924135,204007
OK,70,41,936,70,2014-08-02T19:30:00,1,20924584,204007
OK,70,41,936,70,2014-08-02T19:35:00,1,20925033,204007
OK,70,41,936,70,2014-08-02T19:40:00,0,20925482,204007
OK,70,41,936,70,2014-08-02T19:45:00,0,20925931,204007
OK,70,41,936,70,2014-08-02T19:50:00,0,20926380,204007
OK,70,41,936,70,2014-08-02T19:55:00,0,20926829,204007
OK,70,41,936,70,2014-08-02T20:00:00,0,20927278,204007
OK,63,45,936,63,2014-08-02T20:05:00,1,20927727,204007
OK,63,45,936,63,2014-08-02T20:10:00,1,20928176,204007
OK,63,45,936,63,2014-08-02T20:15:00,0,20928625,204007
OK,63,45,936,63,2014-08-02T20:20:00,0,20929074,204007
OK,68,42,936,68,2014-08-02T20:25:00,1,20929523,204007
OK,68,42,936,68,2014-08-02T20:30:00,1,20929972,204007
OK,68,42,936,68,2014-08-02T20:35:00,0,20930421,204007
OK,68,42,936,68,2014-08-02T20:40:00,0,20930870,204007
OK,68,42,936,68,2014-08-02T20:45:00,0,20931319,204007
OK,68,42,936,68,2014-08-02T20:50:00,0,20931768,204007
OK,61,47,936,61,2014-08-02T20:55:00,0,20932217,204007
OK,61,47,936,61,2014-08-02T21:00:00,0,20932666,204007
OK,61,47,936,61,2014-08-02T21:05:00,0,20933115,204007
OK,61,47,936,61,2014-08-02T21:10:00,0,20933564,204007
OK,109,26,936,109,2014-08-02T21:15:00,1,20934013,204007
OK,109,26,936,109,2014-08-02T21:20:00,0,20934462,204007
OK,109,26,936,109,2014-08-02T21:25:00,0,20934911,204007
OK,109,26,936,109,2014-08-02T21:30:00,0,20935360,204007
OK,109,26,936,109,2014-08-02T21:35:00,0,20935809,204007
OK,109,26,936,109,2014-08-02T21:40:00,0,20936258,204007
OK,109,26,936,109,2014-08-02T21:45:00,0,20936707,204007
OK,109,26,936,109,2014-08-02T21:50:00,0,20937156,204007
OK,66,43,936,66,2014-08-02T21:55:00,1,20937605,204007
OK,66,43,936,66,2014-08-02T22:00:00,0,20938054,204007
OK,66,43,936,66,2014-08-02T22:05:00,2,20938503,204007
OK,66,43,936,66,2014-08-02T22:10:00,2,20938952,204007
OK,63,45,936,63,2014-08-02T22:15:00,0,20939401,204007
OK,63,45,936,63,2014-08-02T22:20:00,0,20939850,204007
OK,63,45,936,63,2014-08-02T22:25:00,0,20940299,204007
OK,54,53,936,54,2014-08-02T22:30:00,1,20940748,204007
OK,60,47,936,60,2014-08-02T22:35:00,2,20941197,204007
OK,67,42,936,67,2014-08-02T22:40:00,1,20941646,204007
OK,67,42,936,67,2014-08-02T22:45:00,0,20942095,204007
OK,67,42,936,67,2014-08-02T22:50:00,0,20942544,204007
OK,64,44,936,64,2014-08-02T22:55:00,2,20942993,204007
OK,61,47,936,61,2014-08-02T23:00:00,1,20943442,204007
OK,61,47,936,61,2014-08-02T23:10:00,0,20943891,204007
OK,61,47,936,61,2014-08-02T23:15:00,0,20944340,204007
OK,61,47,936,61,2014-08-02T23:20:00,0,20944789,204007
OK,61,47,936,61,2014-08-02T23:25:00,0,20945238,204007
OK,61,47,936,61,2014-08-02T23:30:00,0,20945687,204007
OK,61,47,936,61,2014-08-02T23:35:00,0,20946136,204007
OK,61,47,936,61,2014-08-02T23:40:00,0,20946585,204007
OK,61,47,936,61,2014-08-02T23:45:00,0,20947034,204007
OK,61,47,936,61,2014-08-02T23:50:00,0,20947483,204007
OK,61,47,936,61,2014-08-02T23:55:00,0,20947932,204007
OK,61,47,936,61,2014-08-03T00:00:00,0,20948381,204007
OK,57,50,936,57,2014-08-03T00:05:00,1,20948830,204007
OK,57,50,936,57,2014-08-03T00:10:00,0,20949278,204007
OK,57,50,936,57,2014-08-03T00:15:00,0,20949727,204007
OK,57,50,936,57,2014-08-03T00:20:00,0,20950176,204007
OK,57,50,936,57,2014-08-03T00:25:00,0,20950625,204007
OK,57,50,936,57,2014-08-03T00:30:00,0,20951074,204007
OK,57,50,936,57,2014-08-03T00:35:00,0,20951523,204007
OK,57,50,936,57,2014-08-03T00:40:00,0,20951972,204007
OK,57,50,936,57,2014-08-03T00:45:00,0,20952421,204007
OK,57,50,936,57,2014-08-03T00:50:00,0,20952870,204007
OK,181,15,936,181,2014-08-03T00:55:00,1,20953319,204007
OK,181,15,936,181,2014-08-03T01:00:00,1,20953768,204007
OK,181,15,936,181,2014-08-03T01:05:00,0,20954217,204007
OK,181,15,936,181,2014-08-03T01:10:00,0,20954666,204007
OK,181,15,936,181,2014-08-03T01:15:00,0,20955115,204007
OK,181,15,936,181,2014-08-03T01:20:00,0,20955564,204007
OK,181,15,936,181,2014-08-03T01:25:00,0,20956013,204007
OK,181,15,936,181,2014-08-03T01:30:00,0,20956462,204007
OK,181,15,936,181,2014-08-03T01:35:00,0,20956911,204007
OK,181,15,936,181,2014-08-03T01:40:00,0,20957360,204007
OK,181,15,936,181,2014-08-03T01:45:00,0,20957809,204007
OK,181,15,936,181,2014-08-03T01:50:00,0,20958258,204007
OK,181,15,936,181,2014-08-03T01:55:00,0,20958707,204007
OK,181,15,936,181,2014-08-03T02:00:00,0,20959156,204007
OK,181,15,936,181,2014-08-03T02:05:00,0,20959605,204007
OK,181,15,936,181,2014-08-03T02:10:00,0,20960054,204007
OK,181,15,936,181,2014-08-03T02:15:00,0,20960503,204007